TimeCEST,TemperatureF,Dew PointF,Humidity,Sea Level PressureIn,VisibilityMPH,Wind Direction,Wind SpeedMPH,Gust SpeedMPH,PrecipitationIn,Events,Conditions,WindDirDegrees,DateUTC
12:15 AM,59.0,57.2,94,29.83,5.0,SE,6.7,-,N/A,,Unknown,130,2012-10-15 22:15:00
12:45 AM,59.0,57.2,94,29.83,5.0,ESE,6.7,-,N/A,,Unknown,120,2012-10-15 22:45:00
1:15 AM,59.0,57.2,94,29.83,5.0,SE,8.9,-,N/A,,Unknown,130,2012-10-15 23:15:00
1:45 AM,57.2,57.2,100,29.83,5.0,SE,8.9,-,N/A,,Unknown,130,2012-10-15 23:45:00
2:15 AM,57.2,55.4,94,29.83,5.0,SSE,6.7,-,N/A,,Unknown,150,2012-10-16 00:15:00
2:45 AM,57.2,57.2,100,29.83,5.0,SE,6.7,-,N/A,,Unknown,140,2012-10-16 00:45:00
3:15 AM,57.2,57.2,100,29.80,3.7,SE,6.7,-,N/A,,Unknown,140,2012-10-16 01:15:00
3:45 AM,-9999,-9999,N/A,-9999,1.9,SE,6.7,-,N/A,,Overcast,140,2012-10-16 01:45:00
4:15 AM,57.2,55.4,94,29.80,3.7,SE,6.7,-,N/A,,Clear,140,2012-10-16 02:15:00
4:45 AM,57.2,55.4,94,29.80,3.7,ESE,6.7,-,N/A,,Unknown,120,2012-10-16 02:45:00
5:15 AM,55.4,55.4,100,29.80,3.1,ENE,6.7,-,N/A,,Mostly Cloudy,70,2012-10-16 03:15:00
5:45 AM,55.4,55.4,100,29.80,3.1,East,6.7,-,N/A,,Mostly Cloudy,80,2012-10-16 03:45:00
6:15 AM,55.4,55.4,100,29.80,3.1,East,6.7,-,N/A,,Mostly Cloudy,100,2012-10-16 04:15:00
6:45 AM,-9999,-9999,N/A,-9999,2.5,SE,11.2,-,N/A,,Overcast,130,2012-10-16 04:45:00
7:15 AM,57.2,55.4,94,29.77,3.7,East,6.7,-,N/A,,Unknown,100,2012-10-16 05:15:00
7:45 AM,59.0,55.4,88,29.77,5.0,East,6.7,-,N/A,,Unknown,100,2012-10-16 05:45:00
8:15 AM,59.0,55.4,88,29.77,-9999.0,ESE,8.9,-,N/A,,Clear,110,2012-10-16 06:15:00
8:45 AM,59.0,55.4,88,29.77,-9999.0,ESE,8.9,-,N/A,,Clear,120,2012-10-16 06:45:00
9:09 AM,60.8,55.4,82,29.77,6.2,ESE,8.9,-,N/A,Rain,Light Rain,120,2012-10-16 07:09:00
9:15 AM,60.8,55.4,82,29.77,6.2,SE,8.9,-,N/A,Rain,Light Rain,130,2012-10-16 07:15:00
9:45 AM,-9999,-9999,N/A,-9999,5.0,South,11.2,-,N/A,,Overcast,190,2012-10-16 07:45:00
10:15 AM,59.0,57.2,94,29.77,3.7,East,2.2,-,N/A,Rain,Light Rain,100,2012-10-16 08:15:00
10:24 AM,59.0,59.0,100,29.77,3.1,East,4.5,-,N/A,Rain,Light Rain,90,2012-10-16 08:24:00
10:45 AM,59.0,59.0,100,29.77,3.1,East,4.5,-,N/A,Rain,Rain,90,2012-10-16 08:45:00
11:15 AM,60.8,59.0,94,29.77,3.1,ESE,6.7,-,N/A,Rain,Rain,110,2012-10-16 09:15:00
11:45 AM,60.8,59.0,94,29.77,3.1,ESE,6.7,-,N/A,Rain,Rain,110,2012-10-16 09:45:00
12:15 PM,60.8,60.8,100,29.77,4.3,East,6.7,-,N/A,Rain,Light Rain,100,2012-10-16 10:15:00
12:45 PM,-9999,-9999,N/A,-9999,1.9,South,11.2,-,N/A,Rain,Rain,190,2012-10-16 10:45:00
1:15 PM,64.4,60.8,88,29.77,5.0,South,6.7,-,N/A,,Unknown,170,2012-10-16 11:15:00
1:45 PM,64.4,60.8,88,29.74,-9999.0,SSE,6.7,-,N/A,,Clear,160,2012-10-16 11:45:00
2:15 PM,64.4,60.8,88,29.74,-9999.0,South,2.2,-,N/A,,Clear,190,2012-10-16 12:15:00
2:45 PM,66.2,60.8,83,29.74,-9999.0,South,4.5,-,N/A,,Clear,180,2012-10-16 12:45:00
3:15 PM,68.0,60.8,78,29.74,6.2,SSW,6.7,17.9,N/A,,Mostly Cloudy,200,2012-10-16 13:15:00
3:23 PM,66.2,59.0,78,29.74,5.0,SSW,8.9,-,N/A,Rain,Light Rain,210,2012-10-16 13:23:00
3:37 PM,64.4,60.8,88,29.77,5.0,WSW,8.9,26.8,N/A,,Mostly Cloudy,240,2012-10-16 13:37:00
3:45 PM,-9999,-9999,N/A,-9999,5.0,West,11.2,22.4,N/A,Rain,Rain,260,2012-10-16 13:45:00
4:15 PM,62.6,59.0,88,29.77,5.0,WSW,8.9,-,N/A,,Mostly Cloudy,240,2012-10-16 14:15:00
4:45 PM,55.4,53.6,94,29.80,5.0,WSW,11.2,29.1,N/A,,Overcast,240,2012-10-16 14:45:00
5:00 PM,-9999,-9999,N/A,-9999,6.2,West,11.2,22.4,N/A,,Mostly Cloudy,260,2012-10-16 15:00:00
5:15 PM,51.8,50.0,94,29.83,6.2,West,15.7,-,N/A,,Overcast,270,2012-10-16 15:15:00
5:45 PM,51.8,48.2,88,29.83,6.2,West,17.9,-,N/A,,Scattered Clouds,260,2012-10-16 15:45:00
6:15 PM,50.0,48.2,94,29.86,6.2,West,17.9,-,N/A,,Scattered Clouds,270,2012-10-16 16:15:00
6:45 PM,-9999,-9999,N/A,-9999,6.2,West,11.2,22.4,N/A,,Overcast,260,2012-10-16 16:45:00
7:15 PM,50.0,46.4,87,29.89,6.2,West,15.7,-,N/A,,Overcast,270,2012-10-16 17:15:00
7:45 PM,48.2,46.4,93,29.92,6.2,West,15.7,-,N/A,,Overcast,270,2012-10-16 17:45:00
8:15 PM,50.0,46.4,87,29.92,6.2,West,11.2,-,N/A,,Overcast,280,2012-10-16 18:15:00
8:45 PM,50.0,44.6,82,29.95,6.2,West,11.2,-,N/A,,Overcast,270,2012-10-16 18:45:00
9:15 PM,48.2,44.6,87,29.95,6.2,West,11.2,-,N/A,,Mostly Cloudy,280,2012-10-16 19:15:00
9:45 PM,-9999,-9999,N/A,-9999,6.2,West,11.2,22.4,N/A,,Clear,260,2012-10-16 19:45:00
10:15 PM,48.2,42.8,82,29.98,6.2,West,13.4,-,N/A,,Overcast,270,2012-10-16 20:15:00
10:45 PM,48.2,42.8,82,30.01,6.2,West,13.4,-,N/A,,Overcast,270,2012-10-16 20:45:00
11:15 PM,46.4,42.8,87,30.01,6.2,West,8.9,-,N/A,,Mostly Cloudy,270,2012-10-16 21:15:00
11:45 PM,46.4,42.8,87,30.04,6.2,West,8.9,-,N/A,,Scattered Clouds,270,2012-10-16 21:45:00